Congonhas Airport
SBSP : rendu visible

Aérodrome :











RETROUVEZ-NOUS SUR...

 
LOGIN :

S'inscrire | Disclaimer

   EN    FR    IT 

 









Légende :    VFR   VFR Marginal   IFR   IFR Intensif   IFR Très Intensif
Visi : 
Plafond : 
>= 8 km
>= 3000ft
5 à 8 km
1000 à 3000 ft
1500m à 5 km
500 à 1000 ft
800 à 1500m
200 à 500 ft
< 800m
< 200 ft
Symboles :   Orages  Brouillard  Fortes neiges  Fortes précipitations  Vent > 20 kt






- Altitude de l'aérodrome : 2631 ft
- Code IATA : CGH


SBSP - Congonhas

DERNIER METAR :
  • 271000Z 04004KT CAVOK 21/14 Q1015

METARs EXPIRÉS :
  • 270900Z 05005KT CAVOK 21/14 Q1014
  • 270800Z AUTO 05004KT 020V090 9999 // NCD 21/13 Q1013

TAF TAF SBSP
Valide du 27 à 06h jusqu'au 27 à 18h UTC


270100Z 2706/2718 05003KT CAVOK TN20/2709Z TX33/2717Z
BECMG 2712/2714 33010KT RMK PGF
FIR SBCW / Amérique du Sud



MET'MAP, la Météo Aéronautique d'un coup d'oeil ! - Copyright ORBIFLY Décembre 2007 - Disclaimer

ORBIFLY MET'MAP TEAM :

Programmation & Développement : Alexandra Zaïnal
Sur une idée originale de : Baudouin d'Aumeries
Assistance à la programmation : Marc-Olivier Méhu
Soutien technique & logistique : Manuel Goepfert

Contact : metmap@orbifly.com




SOURCES & CREDITS :

   NOAA       Earth
Advisory